Time,TemperatureF,DewpointF,PressureIn,WindDirection,WindDirectionDegrees,WindSpeedMPH,WindSpeedGustMPH,Humidity,HourlyPrecipIn,Conditions,Clouds,dailyrainin,SoftwareType,DateUTC
2013-10-16 00:01:00,65.6,60.6,29.89,East,90,0.0,3.0,84,0.00,,,0.00,WeatherCatV1.21B27,2013-10-16 04:01:00,
2013-10-16 00:02:00,65.6,60.6,29.89,East,90,0.0,3.0,84,0.00,,,0.00,WeatherCatV1.21B27,2013-10-16 04:02:00,
2013-10-16 00:05:00,65.5,60.5,29.89,ESE,113,0.0,3.0,84,0.00,,,0.00,WeatherCatV1.21B27,2013-10-16 04:05:00,
2013-10-16 00:06:00,65.5,60.5,29.89,ESE,115,0.0,3.0,84,0.00,,,0.00,WeatherCatV1.21B27,2013-10-16 04:06:00,
2013-10-16 00:07:00,65.5,60.5,29.89,ESE,115,1.0,2.0,84,0.00,,,0.00,WeatherCatV1.21B27,2013-10-16 04:07:00,
2013-10-16 00:11:00,65.4,60.4,29.89,ESE,108,0.0,2.0,84,0.00,,,0.00,WeatherCatV1.21B27,2013-10-16 04:11:00,
2013-10-16 00:16:00,65.3,60.3,29.89,ESE,120,0.0,1.0,84,0.00,,,0.00,WeatherCatV1.21B27,2013-10-16 04:16:00,
2013-10-16 00:21:00,65.2,60.6,29.89,ESE,111,0.0,3.0,85,0.00,,,0.00,WeatherCatV1.21B27,2013-10-16 04:21:00,
2013-10-16 00:26:00,65.0,60.4,29.89,SE,144,2.0,2.0,85,0.00,,,0.00,WeatherCatV1.21B27,2013-10-16 04:26:00,
2013-10-16 00:31:00,64.8,60.2,29.89,SE,144,0.0,1.0,85,0.00,,,0.00,WeatherCatV1.21B27,2013-10-16 04:31:00,
2013-10-16 00:36:00,64.6,60.3,29.89,ESE,110,1.0,2.0,86,0.00,,,0.00,WeatherCatV1.21B27,2013-10-16 04:36:00,
2013-10-16 00:41:00,64.5,60.2,29.89,ESE,110,0.0,0.0,86,0.00,,,0.00,WeatherCatV1.21B27,2013-10-16 04:41:00,
2013-10-16 00:46:00,64.3,60.0,29.89,ESE,110,0.0,0.0,86,0.00,,,0.00,WeatherCatV1.21B27,2013-10-16 04:46:00,
2013-10-16 00:51:00,64.1,60.2,29.89,SSE,156,0.0,0.0,87,0.00,,,0.01,WeatherCatV1.21B27,2013-10-16 04:51:00,
2013-10-16 00:56:00,63.9,60.0,29.88,NE,42,0.0,0.0,87,0.00,,,0.01,WeatherCatV1.21B27,2013-10-16 04:56:00,
2013-10-16 01:01:00,63.7,59.8,29.88,East,88,2.0,2.0,87,0.00,,,0.01,WeatherCatV1.21B27,2013-10-16 05:01:00,
2013-10-16 01:06:00,63.6,60.0,29.88,ESE,122,0.0,1.0,88,0.04,,,0.02,WeatherCatV1.21B27,2013-10-16 05:06:00,
2013-10-16 01:11:00,63.4,59.8,29.88,South,188,0.0,0.0,88,0.04,,,0.02,WeatherCatV1.21B27,2013-10-16 05:11:00,
2013-10-16 01:16:00,63.2,59.6,29.88,ESE,111,0.0,0.0,88,0.06,,,0.03,WeatherCatV1.21B27,2013-10-16 05:16:00,
2013-10-16 01:21:00,63.0,59.4,29.89,ESE,113,0.0,0.0,88,0.07,,,0.04,WeatherCatV1.21B27,2013-10-16 05:21:00,
2013-10-16 01:26:00,62.9,59.6,29.89,NNE,16,0.0,0.0,89,0.07,,,0.04,WeatherCatV1.21B27,2013-10-16 05:26:00,
2013-10-16 01:31:00,62.7,59.4,29.89,ESE,121,0.0,0.0,89,0.06,,,0.05,WeatherCatV1.21B27,2013-10-16 05:31:00,
2013-10-16 01:36:00,62.6,59.3,29.89,ESE,121,0.0,1.0,89,0.06,,,0.05,WeatherCatV1.21B27,2013-10-16 05:36:00,
2013-10-16 01:41:00,62.4,59.1,29.89,ESE,122,0.0,0.0,89,0.10,,,0.06,WeatherCatV1.21B27,2013-10-16 05:41:00,
2013-10-16 01:46:00,62.3,59.0,29.89,ESE,122,0.0,2.0,89,0.22,,,0.08,WeatherCatV1.21B27,2013-10-16 05:46:00,
2013-10-16 01:51:00,62.2,58.9,29.89,ESE,122,0.0,0.0,89,0.11,,,0.09,WeatherCatV1.21B27,2013-10-16 05:51:00,
2013-10-16 01:56:00,62.1,58.8,29.88,ESE,122,0.0,0.0,89,0.11,,,0.09,WeatherCatV1.21B27,2013-10-16 05:56:00,
2013-10-16 02:01:00,62.0,59.0,29.88,ESE,122,0.0,2.0,90,0.06,,,0.09,WeatherCatV1.21B27,2013-10-16 06:01:00,
2013-10-16 02:06:00,61.9,58.9,29.88,ESE,112,0.0,0.0,90,0.04,,,0.09,WeatherCatV1.21B27,2013-10-16 06:06:00,
2013-10-16 02:11:00,61.9,58.9,29.88,ESE,111,0.0,0.0,90,0.00,,,0.09,WeatherCatV1.21B27,2013-10-16 06:11:00,
2013-10-16 02:16:00,61.8,58.8,29.88,SE,132,0.0,2.0,90,0.35,,,0.11,WeatherCatV1.21B27,2013-10-16 06:16:00,
2013-10-16 02:21:00,61.8,58.8,29.88,SE,132,0.0,1.0,90,0.17,,,0.12,WeatherCatV1.21B27,2013-10-16 06:21:00,
2013-10-16 02:26:00,61.7,58.7,29.88,SE,132,0.0,0.0,90,0.10,,,0.13,WeatherCatV1.21B27,2013-10-16 06:26:00,
2013-10-16 02:31:00,61.7,58.7,29.88,NE,51,0.0,1.0,90,0.08,,,0.13,WeatherCatV1.21B27,2013-10-16 06:31:00,
2013-10-16 02:36:00,61.6,58.6,29.88,NE,51,0.0,0.0,90,0.05,,,0.13,WeatherCatV1.21B27,2013-10-16 06:36:00,
2013-10-16 02:41:00,61.6,58.6,29.88,East,91,0.0,0.0,90,0.21,,,0.15,WeatherCatV1.21B27,2013-10-16 06:41:00,
2013-10-16 02:46:00,61.5,58.5,29.88,East,91,0.0,0.0,90,0.39,,,0.17,WeatherCatV1.21B27,2013-10-16 06:46:00,
2013-10-16 02:51:00,61.5,58.5,29.88,East,91,0.0,0.0,90,0.30,,,0.20,WeatherCatV1.21B27,2013-10-16 06:51:00,
2013-10-16 02:56:00,61.4,58.8,29.89,East,91,0.0,1.0,91,1.04,,,0.25,WeatherCatV1.21B27,2013-10-16 06:56:00,
2013-10-16 03:01:00,61.3,58.7,29.89,East,91,1.0,2.0,91,0.53,,,0.32,WeatherCatV1.21B27,2013-10-16 07:01:00,
2013-10-16 03:06:00,61.3,58.7,29.89,ESE,104,0.0,2.0,91,0.52,,,0.36,WeatherCatV1.21B27,2013-10-16 07:06:00,
2013-10-16 03:11:00,61.2,58.5,29.87,ESE,107,0.0,3.0,91,0.20,,,0.37,WeatherCatV1.21B27,2013-10-16 07:11:00,
2013-10-16 03:16:00,61.3,58.7,29.87,SE,132,0.0,2.0,91,0.11,,,0.38,WeatherCatV1.21B27,2013-10-16 07:16:00,
2013-10-16 03:21:00,61.3,58.7,29.87,SE,132,0.0,1.0,91,0.15,,,0.38,WeatherCatV1.21B27,2013-10-16 07:21:00,
2013-10-16 03:26:00,61.2,58.5,29.87,ESE,106,0.0,0.0,91,0.07,,,0.38,WeatherCatV1.21B27,2013-10-16 07:26:00,
2013-10-16 03:31:00,61.2,58.5,29.87,East,86,0.0,1.0,91,0.07,,,0.39,WeatherCatV1.21B27,2013-10-16 07:31:00,
2013-10-16 03:36:00,61.0,58.3,29.86,NNW,328,0.0,2.0,91,0.06,,,0.39,WeatherCatV1.21B27,2013-10-16 07:36:00,
2013-10-16 03:41:00,61.0,58.3,29.86,ESE,103,0.0,4.0,91,0.04,,,0.39,WeatherCatV1.21B27,2013-10-16 07:41:00,
2013-10-16 03:46:00,60.9,58.2,29.86,SSE,151,0.0,0.0,91,0.00,,,0.39,WeatherCatV1.21B27,2013-10-16 07:46:00,
2013-10-16 03:51:00,60.9,58.2,29.86,SW,224,1.0,2.0,91,0.00,,,0.39,WeatherCatV1.21B27,2013-10-16 07:51:00,
2013-10-16 03:56:00,60.9,58.2,29.86,ESE,121,2.0,3.0,91,0.00,,,0.39,WeatherCatV1.21B27,2013-10-16 07:56:00,
2013-10-16 04:01:00,60.9,58.2,29.86,SW,227,2.0,5.0,91,0.00,,,0.39,WeatherCatV1.21B27,2013-10-16 08:01:00,
2013-10-16 04:06:00,61.0,58.3,29.86,SW,227,0.0,2.0,91,0.00,,,0.39,WeatherCatV1.21B27,2013-10-16 08:06:00,
2013-10-16 04:11:00,61.0,58.3,29.86,SE,146,0.0,1.0,91,0.00,,,0.39,WeatherCatV1.21B27,2013-10-16 08:11:00,
2013-10-16 04:16:00,61.0,58.3,29.86,ESE,108,0.0,2.0,91,0.00,,,0.39,WeatherCatV1.21B27,2013-10-16 08:16:00,
2013-10-16 04:21:00,61.1,58.5,29.86,ESE,111,0.0,1.0,91,0.00,,,0.39,WeatherCatV1.21B27,2013-10-16 08:21:00,
2013-10-16 04:26:00,61.2,58.5,29.86,East,101,1.0,1.0,91,0.00,,,0.39,WeatherCatV1.21B27,2013-10-16 08:26:00,
2013-10-16 04:31:00,61.3,58.7,29.86,East,90,2.0,2.0,91,0.00,,,0.39,WeatherCatV1.21B27,2013-10-16 08:31:00,
2013-10-16 04:36:00,61.3,58.7,29.86,East,99,3.0,3.0,91,0.00,,,0.39,WeatherCatV1.21B27,2013-10-16 08:36:00,
2013-10-16 04:41:00,61.4,59.0,29.86,East,99,0.0,0.0,92,0.00,,,0.40,WeatherCatV1.21B27,2013-10-16 08:41:00,
2013-10-16 04:46:00,61.4,59.0,29.86,East,99,1.0,1.0,92,0.00,,,0.40,WeatherCatV1.21B27,2013-10-16 08:46:00,
2013-10-16 04:51:00,61.5,59.2,29.86,East,100,0.0,0.0,92,0.00,,,0.40,WeatherCatV1.21B27,2013-10-16 08:51:00,
2013-10-16 04:56:00,61.6,59.2,29.86,East,100,0.0,0.0,92,0.00,,,0.40,WeatherCatV1.21B27,2013-10-16 08:56:00,
2013-10-16 05:01:00,61.5,59.2,29.86,East,99,0.0,0.0,92,0.00,,,0.40,WeatherCatV1.21B27,2013-10-16 09:01:00,
2013-10-16 05:06:00,61.5,59.2,29.86,SSE,165,0.0,2.0,92,0.00,,,0.40,WeatherCatV1.21B27,2013-10-16 09:06:00,
2013-10-16 05:11:00,61.5,59.2,29.86,SSE,165,0.0,0.0,92,0.00,,,0.40,WeatherCatV1.21B27,2013-10-16 09:11:00,
2013-10-16 05:16:00,61.5,59.2,29.86,SSE,165,1.0,1.0,92,0.00,,,0.40,WeatherCatV1.21B27,2013-10-16 09:16:00,
2013-10-16 05:21:00,61.5,59.2,29.86,SSE,165,0.0,0.0,92,0.00,,,0.40,WeatherCatV1.21B27,2013-10-16 09:21:00,
2013-10-16 05:26:00,61.5,59.2,29.86,SSE,165,0.0,0.0,92,0.00,,,0.40,WeatherCatV1.21B27,2013-10-16 09:26:00,
2013-10-16 05:31:00,61.5,59.2,29.86,ESE,118,0.0,0.0,92,0.00,,,0.40,WeatherCatV1.21B27,2013-10-16 09:31:00,
2013-10-16 05:36:00,61.5,59.2,29.86,ESE,118,0.0,0.0,92,0.00,,,0.40,WeatherCatV1.21B27,2013-10-16 09:36:00,
2013-10-16 05:41:00,61.5,59.2,29.86,ENE,75,1.0,2.0,92,0.00,,,0.40,WeatherCatV1.21B27,2013-10-16 09:41:00,
2013-10-16 05:46:00,61.6,59.2,29.86,ESE,103,0.0,0.0,92,0.00,,,0.40,WeatherCatV1.21B27,2013-10-16 09:46:00,
2013-10-16 05:51:00,61.5,59.2,29.86,ESE,103,0.0,0.0,92,0.00,,,0.40,WeatherCatV1.21B27,2013-10-16 09:51:00,
2013-10-16 05:56:00,61.6,59.2,29.86,SSE,150,0.0,0.0,92,0.00,,,0.40,WeatherCatV1.21B27,2013-10-16 09:56:00,
2013-10-16 06:01:00,61.5,59.2,29.86,SSE,150,0.0,0.0,92,0.00,,,0.41,WeatherCatV1.21B27,2013-10-16 10:01:00,
2013-10-16 06:06:00,61.5,59.2,29.86,SSE,150,0.0,0.0,92,0.00,,,0.41,WeatherCatV1.21B27,2013-10-16 10:06:00,
2013-10-16 06:11:00,61.5,59.2,29.86,East,98,0.0,2.0,92,0.07,,,0.42,WeatherCatV1.21B27,2013-10-16 10:11:00,
2013-10-16 06:16:00,61.5,59.2,29.86,East,98,0.0,0.0,92,0.07,,,0.42,WeatherCatV1.21B27,2013-10-16 10:16:00,
2013-10-16 06:21:00,61.5,59.2,29.86,East,98,0.0,0.0,92,0.05,,,0.42,WeatherCatV1.21B27,2013-10-16 10:21:00,
2013-10-16 06:26:00,61.5,59.2,29.86,East,98,0.0,1.0,92,0.00,,,0.42,WeatherCatV1.21B27,2013-10-16 10:26:00,
2013-10-16 06:31:00,61.4,59.0,29.86,East,98,0.0,0.0,92,0.00,,,0.42,WeatherCatV1.21B27,2013-10-16 10:31:00,
2013-10-16 06:36:00,61.4,59.0,29.86,East,98,0.0,1.0,92,0.00,,,0.42,WeatherCatV1.21B27,2013-10-16 10:36:00,
2013-10-16 06:41:00,61.3,59.0,29.86,East,98,0.0,0.0,92,0.00,,,0.42,WeatherCatV1.21B27,2013-10-16 10:41:00,
2013-10-16 06:46:00,61.3,59.0,29.86,East,98,0.0,0.0,92,0.00,,,0.42,WeatherCatV1.21B27,2013-10-16 10:46:00,
2013-10-16 06:51:00,61.2,58.8,29.85,East,98,0.0,0.0,92,0.00,,,0.42,WeatherCatV1.21B27,2013-10-16 10:51:00,
2013-10-16 06:56:00,61.1,58.8,29.86,East,99,0.0,0.0,92,0.00,,,0.42,WeatherCatV1.21B27,2013-10-16 10:56:00,
2013-10-16 07:01:00,61.0,58.7,29.85,East,100,0.0,0.0,92,0.00,,,0.42,WeatherCatV1.21B27,2013-10-16 11:01:00,
2013-10-16 07:06:00,61.1,58.8,29.85,East,100,0.0,0.0,92,0.00,,,0.42,WeatherCatV1.21B27,2013-10-16 11:06:00,
2013-10-16 07:11:00,61.1,58.8,29.85,East,99,0.0,1.0,92,0.00,,,0.42,WeatherCatV1.21B27,2013-10-16 11:11:00,
2013-10-16 07:16:00,61.2,58.8,29.85,East,100,0.0,0.0,92,0.00,,,0.42,WeatherCatV1.21B27,2013-10-16 11:16:00,
2013-10-16 07:21:00,61.2,58.8,29.85,East,99,0.0,0.0,92,0.00,,,0.42,WeatherCatV1.21B27,2013-10-16 11:21:00,
2013-10-16 07:26:00,61.2,58.8,29.85,ENE,66,0.0,1.0,92,0.00,,,0.42,WeatherCatV1.21B27,2013-10-16 11:26:00,
2013-10-16 07:31:00,61.1,58.8,29.86,ENE,66,0.0,0.0,92,0.00,,,0.42,WeatherCatV1.21B27,2013-10-16 11:31:00,
2013-10-16 07:36:00,61.1,58.8,29.85,ENE,69,0.0,0.0,92,0.00,,,0.43,WeatherCatV1.21B27,2013-10-16 11:36:00,
2013-10-16 07:41:00,61.1,58.8,29.85,ENE,69,0.0,2.0,92,0.00,,,0.43,WeatherCatV1.21B27,2013-10-16 11:41:00,
2013-10-16 07:46:00,61.2,58.8,29.85,ENE,69,0.0,0.0,92,0.00,,,0.43,WeatherCatV1.21B27,2013-10-16 11:46:00,
2013-10-16 07:51:00,61.2,58.8,29.86,WNW,302,0.0,1.0,92,0.00,,,0.43,WeatherCatV1.21B27,2013-10-16 11:51:00,
2013-10-16 07:56:00,61.2,58.8,29.86,NNE,25,0.0,1.0,92,0.00,,,0.43,WeatherCatV1.21B27,2013-10-16 11:56:00,
2013-10-16 08:01:00,61.2,58.8,29.86,ENE,74,0.0,2.0,92,0.00,,,0.43,WeatherCatV1.21B27,2013-10-16 12:01:00,
2013-10-16 08:06:00,61.2,58.8,29.86,SE,134,0.0,1.0,92,0.00,,,0.43,WeatherCatV1.21B27,2013-10-16 12:06:00,
2013-10-16 08:11:00,61.3,59.0,29.86,SE,134,0.0,1.0,92,0.00,,,0.43,WeatherCatV1.21B27,2013-10-16 12:11:00,
2013-10-16 08:16:00,61.3,59.0,29.86,SE,134,0.0,2.0,92,0.00,,,0.43,WeatherCatV1.21B27,2013-10-16 12:16:00,
2013-10-16 08:21:00,61.3,59.0,29.86,SE,134,0.0,0.0,92,0.00,,,0.43,WeatherCatV1.21B27,2013-10-16 12:21:00,
2013-10-16 08:26:00,61.4,59.0,29.86,ESE,106,0.0,0.0,92,0.00,,,0.43,WeatherCatV1.21B27,2013-10-16 12:26:00,
2013-10-16 08:31:00,61.4,59.0,29.86,ESE,107,0.0,1.0,92,0.00,,,0.43,WeatherCatV1.21B27,2013-10-16 12:31:00,
2013-10-16 08:36:00,61.4,59.0,29.86,South,174,0.0,2.0,92,0.00,,,0.43,WeatherCatV1.21B27,2013-10-16 12:36:00,
2013-10-16 08:41:00,61.4,59.0,29.86,SE,132,0.0,1.0,92,0.00,,,0.43,WeatherCatV1.21B27,2013-10-16 12:41:00,
2013-10-16 08:46:00,61.4,59.0,29.86,SE,132,0.0,0.0,92,0.00,,,0.43,WeatherCatV1.21B27,2013-10-16 12:46:00,
2013-10-16 08:51:00,61.5,59.2,29.87,SE,132,0.0,0.0,92,0.00,,,0.43,WeatherCatV1.21B27,2013-10-16 12:51:00,
2013-10-16 08:56:00,61.5,59.5,29.86,SE,132,0.0,0.0,93,0.00,,,0.43,WeatherCatV1.21B27,2013-10-16 12:56:00,
2013-10-16 09:01:00,61.5,59.5,29.86,SE,132,0.0,2.0,93,0.00,,,0.43,WeatherCatV1.21B27,2013-10-16 13:01:00,
2013-10-16 09:06:00,61.6,59.5,29.85,SE,132,0.0,0.0,93,0.00,,,0.43,WeatherCatV1.21B27,2013-10-16 13:06:00,
2013-10-16 09:11:00,61.8,59.8,29.85,SE,126,0.0,1.0,93,0.00,,,0.43,WeatherCatV1.21B27,2013-10-16 13:11:00,
2013-10-16 09:16:00,61.9,59.5,29.85,SSE,161,0.0,0.0,92,0.00,,,0.43,WeatherCatV1.21B27,2013-10-16 13:16:00,
2013-10-16 09:21:00,62.0,59.7,29.86,SE,128,0.0,1.0,92,0.00,,,0.43,WeatherCatV1.21B27,2013-10-16 13:21:00,
2013-10-16 09:26:00,62.0,59.7,29.86,SE,126,1.0,2.0,92,0.00,,,0.43,WeatherCatV1.21B27,2013-10-16 13:26:00,
2013-10-16 09:31:00,62.0,59.7,29.86,SE,127,0.0,0.0,92,0.00,,,0.43,WeatherCatV1.21B27,2013-10-16 13:31:00,
2013-10-16 09:36:00,62.2,60.2,29.86,SE,126,2.0,2.0,93,0.00,,,0.43,WeatherCatV1.21B27,2013-10-16 13:36:00,
2013-10-16 09:41:00,62.2,60.2,29.85,WSW,246,2.0,3.0,93,0.00,,,0.43,WeatherCatV1.21B27,2013-10-16 13:41:00,
2013-10-16 09:46:00,62.2,60.2,29.85,SE,134,2.0,2.0,93,0.00,,,0.43,WeatherCatV1.21B27,2013-10-16 13:46:00,
2013-10-16 09:51:00,62.2,60.2,29.85,SE,132,3.0,3.0,93,0.00,,,0.43,WeatherCatV1.21B27,2013-10-16 13:51:00,
2013-10-16 09:56:00,62.2,60.2,29.86,WNW,298,0.0,5.0,93,0.00,,,0.43,WeatherCatV1.21B27,2013-10-16 13:56:00,
2013-10-16 10:01:00,62.2,60.2,29.85,SE,134,0.0,0.0,93,0.00,,,0.43,WeatherCatV1.21B27,2013-10-16 14:01:00,
2013-10-16 10:06:00,62.2,60.2,29.85,ESE,119,2.0,2.0,93,0.00,,,0.43,WeatherCatV1.21B27,2013-10-16 14:06:00,
2013-10-16 10:11:00,62.3,60.2,29.84,ESE,118,0.0,0.0,93,0.00,,,0.43,WeatherCatV1.21B27,2013-10-16 14:11:00,
2013-10-16 10:16:00,62.5,60.4,29.85,South,184,0.0,3.0,93,0.00,,,0.43,WeatherCatV1.21B27,2013-10-16 14:16:00,
2013-10-16 10:21:00,62.5,60.1,29.85,ESE,120,0.0,1.0,92,0.00,,,0.43,WeatherCatV1.21B27,2013-10-16 14:21:00,
2013-10-16 10:26:00,62.6,60.2,29.85,ESE,119,0.0,0.0,92,0.00,,,0.43,WeatherCatV1.21B27,2013-10-16 14:26:00,
2013-10-16 10:31:00,62.6,60.2,29.84,ESE,123,2.0,4.0,92,0.00,,,0.43,WeatherCatV1.21B27,2013-10-16 14:31:00,
2013-10-16 10:36:00,62.7,60.3,29.84,ESE,115,1.0,2.0,92,0.00,,,0.43,WeatherCatV1.21B27,2013-10-16 14:36:00,
2013-10-16 10:41:00,62.8,60.4,29.84,ESE,106,0.0,0.0,92,0.00,,,0.43,WeatherCatV1.21B27,2013-10-16 14:41:00,
2013-10-16 10:46:00,62.9,60.5,29.84,SSW,197,2.0,2.0,92,0.00,,,0.43,WeatherCatV1.21B27,2013-10-16 14:46:00,
2013-10-16 10:51:00,62.9,60.5,29.84,East,84,0.0,2.0,92,0.00,,,0.43,WeatherCatV1.21B27,2013-10-16 14:51:00,
2013-10-16 10:56:00,63.0,60.6,29.84,SE,137,0.0,0.0,92,0.00,,,0.43,WeatherCatV1.21B27,2013-10-16 14:56:00,
2013-10-16 11:01:00,63.0,60.6,29.84,South,172,0.0,0.0,92,0.00,,,0.43,WeatherCatV1.21B27,2013-10-16 15:01:00,
2013-10-16 11:06:00,63.0,60.6,29.84,ESE,116,2.0,4.0,92,0.00,,,0.43,WeatherCatV1.21B27,2013-10-16 15:06:00,
2013-10-16 11:11:00,62.9,60.5,29.83,ESE,116,0.0,0.0,92,0.00,,,0.43,WeatherCatV1.21B27,2013-10-16 15:11:00,
2013-10-16 11:16:00,63.1,60.7,29.84,ESE,115,0.0,1.0,92,0.00,,,0.43,WeatherCatV1.21B27,2013-10-16 15:16:00,
2013-10-16 11:21:00,63.2,60.8,29.84,SE,146,1.0,2.0,92,0.00,,,0.43,WeatherCatV1.21B27,2013-10-16 15:21:00,
2013-10-16 11:26:00,63.1,60.7,29.83,ESE,111,0.0,0.0,92,0.00,,,0.43,WeatherCatV1.21B27,2013-10-16 15:26:00,
2013-10-16 11:31:00,63.2,60.8,29.84,South,178,0.0,3.0,92,0.00,,,0.43,WeatherCatV1.21B27,2013-10-16 15:31:00,
2013-10-16 11:36:00,63.4,61.0,29.84,SSW,210,2.0,4.0,92,0.00,,,0.43,WeatherCatV1.21B27,2013-10-16 15:36:00,
2013-10-16 11:41:00,63.6,61.2,29.83,SSW,210,0.0,0.0,92,0.00,,,0.43,WeatherCatV1.21B27,2013-10-16 15:41:00,
2013-10-16 11:46:00,63.7,61.0,29.83,ESE,117,1.0,4.0,91,0.00,,,0.43,WeatherCatV1.21B27,2013-10-16 15:46:00,
2013-10-16 11:51:00,63.9,61.2,29.83,ESE,114,1.0,4.0,91,0.00,,,0.43,WeatherCatV1.21B27,2013-10-16 15:51:00,
2013-10-16 11:56:00,64.0,61.3,29.83,ESE,117,2.0,2.0,91,0.00,,,0.43,WeatherCatV1.21B27,2013-10-16 15:56:00,
2013-10-16 12:01:00,64.1,61.4,29.83,SE,139,0.0,1.0,91,0.00,,,0.43,WeatherCatV1.21B27,2013-10-16 16:01:00,
2013-10-16 12:06:00,64.3,61.6,29.83,ESE,121,0.0,4.0,91,0.00,,,0.43,WeatherCatV1.21B27,2013-10-16 16:06:00,
2013-10-16 12:11:00,64.3,61.3,29.82,South,177,1.0,4.0,90,0.00,,,0.43,WeatherCatV1.21B27,2013-10-16 16:11:00,
2013-10-16 12:16:00,64.6,61.9,29.82,SE,139,1.0,5.0,91,0.00,,,0.43,WeatherCatV1.21B27,2013-10-16 16:16:00,
2013-10-16 12:21:00,65.2,62.2,29.82,ESE,107,2.0,4.0,90,0.00,,,0.43,WeatherCatV1.21B27,2013-10-16 16:21:00,
2013-10-16 12:26:00,65.3,62.0,29.82,ESE,122,0.0,3.0,89,0.00,,,0.43,WeatherCatV1.21B27,2013-10-16 16:26:00,
2013-10-16 12:31:00,65.9,62.9,29.82,SSW,205,0.0,3.0,90,0.00,,,0.43,WeatherCatV1.21B27,2013-10-16 16:31:00,
2013-10-16 12:36:00,66.4,63.0,29.82,ESE,111,1.0,4.0,89,0.00,,,0.43,WeatherCatV1.21B27,2013-10-16 16:36:00,
2013-10-16 12:41:00,66.6,62.9,29.82,ESE,115,1.0,4.0,88,0.00,,,0.43,WeatherCatV1.21B27,2013-10-16 16:41:00,
2013-10-16 12:46:00,66.9,63.2,29.82,ESE,115,4.0,4.0,88,0.00,,,0.43,WeatherCatV1.21B27,2013-10-16 16:46:00,
2013-10-16 12:51:00,67.8,63.8,29.81,SSE,160,1.0,6.0,87,0.00,,,0.43,WeatherCatV1.21B27,2013-10-16 16:51:00,
2013-10-16 12:56:00,68.0,63.7,29.81,SE,128,0.0,0.0,86,0.00,,,0.43,WeatherCatV1.21B27,2013-10-16 16:56:00,
2013-10-16 13:01:00,67.9,62.9,29.81,ESE,105,2.0,3.0,84,0.00,,,0.43,WeatherCatV1.21B27,2013-10-16 17:01:00,
2013-10-16 13:06:00,67.9,62.9,29.81,SSW,202,1.0,6.0,84,0.00,,,0.43,WeatherCatV1.21B27,2013-10-16 17:06:00,
2013-10-16 13:11:00,67.7,62.7,29.81,WSW,240,1.0,2.0,84,0.00,,,0.43,WeatherCatV1.21B27,2013-10-16 17:11:00,
2013-10-16 13:16:00,67.8,62.8,29.81,SE,130,0.0,3.0,84,0.00,,,0.43,WeatherCatV1.21B27,2013-10-16 17:16:00,
2013-10-16 13:21:00,67.9,62.9,29.81,SE,144,3.0,5.0,84,0.00,,,0.43,WeatherCatV1.21B27,2013-10-16 17:21:00,
2013-10-16 13:26:00,68.0,63.0,29.81,ESE,121,0.0,0.0,84,0.00,,,0.43,WeatherCatV1.21B27,2013-10-16 17:26:00,
2013-10-16 13:31:00,68.1,62.7,29.80,ESE,114,1.0,3.0,83,0.00,,,0.43,WeatherCatV1.21B27,2013-10-16 17:31:00,
2013-10-16 13:36:00,68.3,62.9,29.80,South,186,3.0,3.0,83,0.00,,,0.43,WeatherCatV1.21B27,2013-10-16 17:36:00,
2013-10-16 13:41:00,68.3,62.9,29.80,ESE,107,0.0,3.0,83,0.00,,,0.43,WeatherCatV1.21B27,2013-10-16 17:41:00,
2013-10-16 13:46:00,68.2,62.8,29.79,ESE,114,2.0,5.0,83,0.00,,,0.43,WeatherCatV1.21B27,2013-10-16 17:46:00,
2013-10-16 13:51:00,68.2,62.8,29.78,ESE,113,1.0,3.0,83,0.00,,,0.43,WeatherCatV1.21B27,2013-10-16 17:51:00,
2013-10-16 13:56:00,68.5,63.1,29.78,SSW,192,0.0,5.0,83,0.00,,,0.43,WeatherCatV1.21B27,2013-10-16 17:56:00,
2013-10-16 14:01:00,68.8,63.4,29.78,ESE,103,2.0,4.0,83,0.00,,,0.43,WeatherCatV1.21B27,2013-10-16 18:01:00,
2013-10-16 14:06:00,68.9,63.2,29.78,ESE,112,1.0,4.0,82,0.00,,,0.43,WeatherCatV1.21B27,2013-10-16 18:06:00,
2013-10-16 14:11:00,69.0,63.3,29.77,ESE,119,0.0,2.0,82,0.00,,,0.43,WeatherCatV1.21B27,2013-10-16 18:11:00,
2013-10-16 14:16:00,69.3,63.2,29.77,SE,132,1.0,3.0,81,0.00,,,0.43,WeatherCatV1.21B27,2013-10-16 18:16:00,
2013-10-16 14:21:00,69.5,63.4,29.77,ESE,111,2.0,4.0,81,0.00,,,0.43,WeatherCatV1.21B27,2013-10-16 18:21:00,
2013-10-16 14:26:00,69.6,63.2,29.77,ESE,122,1.0,6.0,80,0.00,,,0.43,WeatherCatV1.21B27,2013-10-16 18:26:00,
2013-10-16 14:28:00,69.8,63.3,29.77,SE,140,0.0,3.0,80,0.00,,,0.43,WeatherCatV1.21B27,2013-10-16 18:28:00,
2013-10-16 14:33:00,69.9,63.1,29.76,ESE,119,2.0,6.0,79,0.00,,,0.43,WeatherCatV1.21B27,2013-10-16 18:33:00,
2013-10-16 14:38:00,70.0,63.5,29.76,ESE,104,2.0,3.0,80,0.00,,,0.43,WeatherCatV1.21B27,2013-10-16 18:38:00,
2013-10-16 14:43:00,69.9,63.1,29.76,South,186,2.0,3.0,79,0.00,,,0.43,WeatherCatV1.21B27,2013-10-16 18:43:00,
2013-10-16 14:48:00,69.6,62.8,29.76,ESE,123,0.0,3.0,79,0.00,,,0.43,WeatherCatV1.21B27,2013-10-16 18:48:00,
2013-10-16 14:53:00,69.5,63.0,29.75,SE,125,0.0,1.0,80,0.00,,,0.43,WeatherCatV1.21B27,2013-10-16 18:53:00,
2013-10-16 14:58:00,69.4,63.0,29.75,SSW,193,0.0,0.0,80,0.00,,,0.43,WeatherCatV1.21B27,2013-10-16 18:58:00,
2013-10-16 15:03:00,69.3,62.8,29.74,SE,133,0.0,0.0,80,0.00,,,0.43,WeatherCatV1.21B27,2013-10-16 19:03:00,
2013-10-16 15:08:00,69.2,62.8,29.74,ESE,123,0.0,3.0,80,0.00,,,0.43,WeatherCatV1.21B27,2013-10-16 19:08:00,
2013-10-16 15:13:00,69.0,62.6,29.74,ESE,113,0.0,4.0,80,0.00,,,0.43,WeatherCatV1.21B27,2013-10-16 19:13:00,
2013-10-16 15:18:00,68.8,62.7,29.75,SSW,199,2.0,4.0,81,0.00,,,0.43,WeatherCatV1.21B27,2013-10-16 19:18:00,
2013-10-16 15:23:00,67.2,61.5,29.77,WNW,291,7.0,11.0,82,7.48,,,0.60,WeatherCatV1.21B27,2013-10-16 19:23:00,
2013-10-16 15:28:00,64.5,60.2,29.77,WNW,288,3.0,6.0,86,0.24,,,0.64,WeatherCatV1.21B27,2013-10-16 19:28:00,
2013-10-16 15:33:00,63.4,59.8,29.78,West,273,3.0,7.0,88,0.09,,,0.64,WeatherCatV1.21B27,2013-10-16 19:33:00,
2013-10-16 15:38:00,62.9,59.3,29.77,SW,220,5.0,9.0,88,0.05,,,0.64,WeatherCatV1.21B27,2013-10-16 19:38:00,
2013-10-16 15:43:00,62.6,59.3,29.78,WSW,250,2.0,12.0,89,0.04,,,0.64,WeatherCatV1.21B27,2013-10-16 19:43:00,
2013-10-16 15:48:00,62.5,59.2,29.77,WSW,237,4.0,5.0,89,0.26,,,0.66,WeatherCatV1.21B27,2013-10-16 19:48:00,
2013-10-16 15:53:00,62.3,59.0,29.78,SW,231,1.0,5.0,89,0.08,,,0.66,WeatherCatV1.21B27,2013-10-16 19:53:00,
2013-10-16 15:58:00,62.1,58.8,29.78,WSW,238,3.0,4.0,89,0.05,,,0.66,WeatherCatV1.21B27,2013-10-16 19:58:00,
2013-10-16 16:03:00,61.8,58.8,29.79,West,268,1.0,4.0,90,0.53,,,0.68,WeatherCatV1.21B27,2013-10-16 20:03:00,
2013-10-16 16:08:00,61.6,58.6,29.78,WSW,247,4.0,6.0,90,0.10,,,0.68,WeatherCatV1.21B27,2013-10-16 20:08:00,
2013-10-16 16:13:00,61.5,58.2,29.78,West,263,4.0,7.0,89,0.07,,,0.69,WeatherCatV1.21B27,2013-10-16 20:13:00,
2013-10-16 16:18:00,61.4,58.1,29.78,SW,236,3.0,5.0,89,0.07,,,0.69,WeatherCatV1.21B27,2013-10-16 20:18:00,
2013-10-16 16:23:00,61.2,57.9,29.78,SW,236,2.0,5.0,89,0.05,,,0.69,WeatherCatV1.21B27,2013-10-16 20:23:00,
2013-10-16 16:28:00,61.1,57.8,29.78,West,267,0.0,4.0,89,0.00,,,0.69,WeatherCatV1.21B27,2013-10-16 20:28:00,
2013-10-16 16:33:00,61.0,57.7,29.78,NW,313,2.0,6.0,89,0.00,,,0.69,WeatherCatV1.21B27,2013-10-16 20:33:00,
2013-10-16 16:38:00,60.9,57.3,29.79,SW,234,1.0,5.0,88,0.00,,,0.69,WeatherCatV1.21B27,2013-10-16 20:38:00,
2013-10-16 16:43:00,60.8,57.2,29.79,WSW,245,3.0,4.0,88,0.00,,,0.69,WeatherCatV1.21B27,2013-10-16 20:43:00,
2013-10-16 16:48:00,60.8,57.2,29.79,WSW,240,0.0,5.0,88,0.00,,,0.69,WeatherCatV1.21B27,2013-10-16 20:48:00,
2013-10-16 16:53:00,60.9,57.3,29.79,WSW,238,3.0,5.0,88,0.00,,,0.69,WeatherCatV1.21B27,2013-10-16 20:53:00,
2013-10-16 16:58:00,61.1,57.5,29.79,West,275,0.0,6.0,88,0.00,,,0.69,WeatherCatV1.21B27,2013-10-16 20:58:00,
2013-10-16 17:03:00,61.2,57.3,29.79,WSW,254,2.0,7.0,87,0.00,,,0.69,WeatherCatV1.21B27,2013-10-16 21:03:00,
2013-10-16 17:08:00,61.4,57.2,29.79,West,268,4.0,7.0,86,0.00,,,0.69,WeatherCatV1.21B27,2013-10-16 21:08:00,
2013-10-16 17:13:00,61.5,56.9,29.79,SW,225,4.0,5.0,85,0.00,,,0.69,WeatherCatV1.21B27,2013-10-16 21:13:00,
2013-10-16 17:18:00,61.5,56.9,29.79,SSW,202,3.0,7.0,85,0.00,,,0.69,WeatherCatV1.21B27,2013-10-16 21:18:00,
2013-10-16 17:23:00,61.7,56.8,29.79,SW,220,3.0,11.0,84,0.00,,,0.69,WeatherCatV1.21B27,2013-10-16 21:23:00,
2013-10-16 17:28:00,61.9,56.3,29.79,SW,217,3.0,10.0,82,0.00,,,0.69,WeatherCatV1.21B27,2013-10-16 21:28:00,
2013-10-16 17:33:00,61.8,56.2,29.79,WNW,288,0.0,5.0,82,0.00,,,0.69,WeatherCatV1.21B27,2013-10-16 21:33:00,
2013-10-16 17:38:00,61.9,56.3,29.79,SW,234,3.0,3.0,82,0.00,,,0.69,WeatherCatV1.21B27,2013-10-16 21:38:00,
2013-10-16 17:43:00,61.7,55.8,29.79,WSW,239,2.0,2.0,81,0.00,,,0.69,WeatherCatV1.21B27,2013-10-16 21:43:00,
2013-10-16 17:48:00,61.5,55.6,29.79,SW,219,7.0,7.0,81,0.00,,,0.69,WeatherCatV1.21B27,2013-10-16 21:48:00,
2013-10-16 17:53:00,61.6,55.4,29.80,SSW,207,2.0,5.0,80,0.00,,,0.69,WeatherCatV1.21B27,2013-10-16 21:53:00,
2013-10-16 17:58:00,61.7,55.5,29.80,WSW,240,3.0,7.0,80,0.00,,,0.69,WeatherCatV1.21B27,2013-10-16 21:58:00,
2013-10-16 18:04:00,61.5,55.3,29.80,SSW,213,4.0,5.0,80,0.00,,,0.69,WeatherCatV1.21B27,2013-10-16 22:04:00,
2013-10-16 18:09:00,61.4,55.2,29.80,SSW,210,0.0,0.0,80,0.00,,,0.69,WeatherCatV1.21B27,2013-10-16 22:09:00,
2013-10-16 18:14:00,61.2,55.0,29.80,SW,221,0.0,5.0,80,0.00,,,0.69,WeatherCatV1.21B27,2013-10-16 22:14:00,
2013-10-16 18:19:00,61.2,55.0,29.80,SW,225,2.0,4.0,80,0.00,,,0.69,WeatherCatV1.21B27,2013-10-16 22:19:00,
2013-10-16 18:24:00,61.0,54.8,29.80,SW,219,1.0,6.0,80,0.00,,,0.69,WeatherCatV1.21B27,2013-10-16 22:24:00,
2013-10-16 18:29:00,61.0,54.8,29.80,West,268,0.0,3.0,80,0.00,,,0.69,WeatherCatV1.21B27,2013-10-16 22:29:00,
2013-10-16 18:34:00,61.0,54.4,29.80,SW,230,0.0,3.0,79,0.00,,,0.69,WeatherCatV1.21B27,2013-10-16 22:34:00,
2013-10-16 18:39:00,61.0,54.4,29.80,WSW,238,2.0,5.0,79,0.00,,,0.69,WeatherCatV1.21B27,2013-10-16 22:39:00,
2013-10-16 18:44:00,61.0,54.4,29.80,WSW,250,0.0,0.0,79,0.00,,,0.69,WeatherCatV1.21B27,2013-10-16 22:44:00,
2013-10-16 18:49:00,61.1,54.2,29.80,West,277,0.0,5.0,78,0.00,,,0.69,WeatherCatV1.21B27,2013-10-16 22:49:00,
2013-10-16 18:54:00,61.2,53.9,29.80,SW,233,4.0,5.0,77,0.00,,,0.69,WeatherCatV1.21B27,2013-10-16 22:54:00,
2013-10-16 18:59:00,61.4,53.8,29.80,SW,229,4.0,9.0,76,0.00,,,0.69,WeatherCatV1.21B27,2013-10-16 22:59:00,
2013-10-16 19:04:00,61.4,53.8,29.81,WSW,249,1.0,6.0,76,0.00,,,0.69,WeatherCatV1.21B27,2013-10-16 23:04:00,
2013-10-16 19:09:00,61.4,53.8,29.81,SSW,205,4.0,5.0,76,0.00,,,0.69,WeatherCatV1.21B27,2013-10-16 23:09:00,
2013-10-16 19:14:00,61.4,53.8,29.81,WSW,241,4.0,6.0,76,0.00,,,0.69,WeatherCatV1.21B27,2013-10-16 23:14:00,
2013-10-16 19:19:00,61.4,53.4,29.82,West,277,4.0,7.0,75,0.00,,,0.69,WeatherCatV1.21B27,2013-10-16 23:19:00,
2013-10-16 19:24:00,61.3,53.3,29.82,WSW,238,5.0,6.0,75,0.00,,,0.69,WeatherCatV1.21B27,2013-10-16 23:24:00,
2013-10-16 19:29:00,61.1,52.8,29.82,WSW,240,7.0,7.0,74,0.00,,,0.69,WeatherCatV1.21B27,2013-10-16 23:29:00,
2013-10-16 19:34:00,61.0,52.3,29.82,WSW,240,2.0,6.0,73,0.00,,,0.69,WeatherCatV1.21B27,2013-10-16 23:34:00,
2013-10-16 19:39:00,60.9,51.8,29.82,WNW,284,1.0,7.0,72,0.00,,,0.69,WeatherCatV1.21B27,2013-10-16 23:39:00,
2013-10-16 19:44:00,61.0,51.9,29.83,SSW,211,6.0,13.0,72,0.00,,,0.69,WeatherCatV1.21B27,2013-10-16 23:44:00,
2013-10-16 19:49:00,61.1,51.6,29.83,West,281,8.0,10.0,71,0.00,,,0.69,WeatherCatV1.21B27,2013-10-16 23:49:00,
2013-10-16 19:54:00,61.0,51.5,29.83,SW,221,4.0,12.0,71,0.00,,,0.69,WeatherCatV1.21B27,2013-10-16 23:54:00,
2013-10-16 19:59:00,60.7,51.6,29.83,SW,232,4.0,7.0,72,0.00,,,0.69,WeatherCatV1.21B27,2013-10-16 23:59:00,
2013-10-16 20:04:00,60.7,51.6,29.84,West,281,2.0,7.0,72,0.00,,,0.69,WeatherCatV1.21B27,2013-10-17 00:04:00,
2013-10-16 20:09:00,60.8,51.3,29.84,West,269,5.0,11.0,71,0.00,,,0.69,WeatherCatV1.21B27,2013-10-17 00:09:00,
2013-10-16 20:14:00,60.8,51.3,29.84,WNW,288,3.0,4.0,71,0.00,,,0.69,WeatherCatV1.21B27,2013-10-17 00:14:00,
2013-10-16 20:19:00,60.7,51.2,29.84,WSW,257,2.0,6.0,71,0.00,,,0.69,WeatherCatV1.21B27,2013-10-17 00:19:00,
2013-10-16 20:24:00,60.7,51.6,29.84,WSW,246,3.0,9.0,72,0.00,,,0.69,WeatherCatV1.21B27,2013-10-17 00:24:00,
2013-10-16 20:29:00,60.6,51.5,29.84,West,281,5.0,5.0,72,0.00,,,0.69,WeatherCatV1.21B27,2013-10-17 00:29:00,
2013-10-16 20:34:00,60.6,51.1,29.84,SSW,206,7.0,7.0,71,0.00,,,0.69,WeatherCatV1.21B27,2013-10-17 00:34:00,
2013-10-16 20:39:00,60.5,51.0,29.85,SW,225,5.0,10.0,71,0.00,,,0.69,WeatherCatV1.21B27,2013-10-17 00:39:00,
2013-10-16 20:44:00,60.4,51.0,29.85,West,268,2.0,9.0,71,0.00,,,0.69,WeatherCatV1.21B27,2013-10-17 00:44:00,
2013-10-16 20:49:00,60.5,51.0,29.85,WSW,257,5.0,9.0,71,0.00,,,0.69,WeatherCatV1.21B27,2013-10-17 00:49:00,
2013-10-16 20:54:00,60.4,51.0,29.85,SW,236,5.0,7.0,71,0.00,,,0.69,WeatherCatV1.21B27,2013-10-17 00:54:00,
2013-10-16 20:59:00,60.5,50.7,29.85,WSW,240,5.0,12.0,70,0.00,,,0.69,WeatherCatV1.21B27,2013-10-17 00:59:00,
2013-10-16 21:04:00,60.6,51.1,29.85,WNW,293,3.0,5.0,71,0.00,,,0.69,WeatherCatV1.21B27,2013-10-17 01:04:00,
2013-10-16 21:09:00,60.5,51.0,29.85,SW,236,0.0,4.0,71,0.00,,,0.69,WeatherCatV1.21B27,2013-10-17 01:09:00,
2013-10-16 21:14:00,60.3,50.8,29.86,WSW,239,2.0,6.0,71,0.00,,,0.69,WeatherCatV1.21B27,2013-10-17 01:14:00,
2013-10-16 21:19:00,60.1,51.0,29.86,SW,225,4.0,6.0,72,0.00,,,0.69,WeatherCatV1.21B27,2013-10-17 01:19:00,
2013-10-16 21:24:00,60.0,50.6,29.86,WSW,240,3.0,7.0,71,0.00,,,0.69,WeatherCatV1.21B27,2013-10-17 01:24:00,
2013-10-16 21:29:00,60.0,50.6,29.87,West,269,7.0,7.0,71,0.00,,,0.69,WeatherCatV1.21B27,2013-10-17 01:29:00,
2013-10-16 21:34:00,59.9,50.5,29.87,West,269,4.0,9.0,71,0.00,,,0.69,WeatherCatV1.21B27,2013-10-17 01:34:00,
2013-10-16 21:39:00,59.7,50.7,29.87,SW,219,5.0,9.0,72,0.00,,,0.69,WeatherCatV1.21B27,2013-10-17 01:39:00,
2013-10-16 21:44:00,59.6,50.6,29.87,SW,217,0.0,8.0,72,0.00,,,0.69,WeatherCatV1.21B27,2013-10-17 01:44:00,
2013-10-16 21:49:00,59.4,50.4,29.87,WSW,244,2.0,6.0,72,0.00,,,0.69,WeatherCatV1.21B27,2013-10-17 01:49:00,
2013-10-16 21:54:00,59.3,50.3,29.88,SSW,213,0.0,6.0,72,0.00,,,0.69,WeatherCatV1.21B27,2013-10-17 01:54:00,
2013-10-16 21:59:00,59.2,50.2,29.88,SSW,213,4.0,6.0,72,0.00,,,0.69,WeatherCatV1.21B27,2013-10-17 01:59:00,
2013-10-16 22:04:00,59.0,50.0,29.88,West,267,3.0,5.0,72,0.00,,,0.69,WeatherCatV1.21B27,2013-10-17 02:04:00,
2013-10-16 22:09:00,59.1,50.1,29.88,SSW,209,3.0,6.0,72,0.00,,,0.69,WeatherCatV1.21B27,2013-10-17 02:09:00,
2013-10-16 22:14:00,59.0,50.0,29.88,SW,226,1.0,11.0,72,0.00,,,0.69,WeatherCatV1.21B27,2013-10-17 02:14:00,
2013-10-16 22:19:00,59.1,50.1,29.88,SW,225,4.0,6.0,72,0.00,,,0.69,WeatherCatV1.21B27,2013-10-17 02:19:00,
2013-10-16 22:24:00,59.1,50.1,29.88,SW,217,2.0,7.0,72,0.00,,,0.69,WeatherCatV1.21B27,2013-10-17 02:24:00,
2013-10-16 22:29:00,58.9,50.3,29.88,WSW,246,2.0,3.0,73,0.00,,,0.69,WeatherCatV1.21B27,2013-10-17 02:29:00,
2013-10-16 22:34:00,59.0,50.0,29.88,WSW,240,6.0,7.0,72,0.00,,,0.69,WeatherCatV1.21B27,2013-10-17 02:34:00,
2013-10-16 22:39:00,59.0,49.6,29.88,SW,236,6.0,12.0,71,0.00,,,0.69,WeatherCatV1.21B27,2013-10-17 02:39:00,
2013-10-16 22:44:00,59.0,49.2,29.88,WSW,245,3.0,5.0,70,0.00,,,0.69,WeatherCatV1.21B27,2013-10-17 02:44:00,
2013-10-16 22:49:00,58.7,49.3,29.88,WSW,240,2.0,6.0,71,0.00,,,0.69,WeatherCatV1.21B27,2013-10-17 02:49:00,
2013-10-16 22:54:00,58.6,49.2,29.88,SW,227,3.0,5.0,71,0.00,,,0.69,WeatherCatV1.21B27,2013-10-17 02:54:00,
2013-10-16 22:59:00,58.7,48.5,29.87,SSW,204,4.0,5.0,69,0.00,,,0.69,WeatherCatV1.21B27,2013-10-17 02:59:00,
2013-10-16 23:04:00,58.7,48.5,29.88,West,279,0.0,5.0,69,0.00,,,0.69,WeatherCatV1.21B27,2013-10-17 03:04:00,
2013-10-16 23:09:00,58.7,48.9,29.87,West,264,0.0,5.0,70,0.00,,,0.69,WeatherCatV1.21B27,2013-10-17 03:09:00,
2013-10-16 23:14:00,58.5,48.8,29.87,SW,221,5.0,6.0,70,0.00,,,0.69,WeatherCatV1.21B27,2013-10-17 03:14:00,
2013-10-16 23:19:00,58.6,48.5,29.87,West,271,5.0,7.0,69,0.00,,,0.69,WeatherCatV1.21B27,2013-10-17 03:19:00,
2013-10-16 23:24:00,58.7,48.5,29.87,SSW,204,5.0,5.0,69,0.00,,,0.69,WeatherCatV1.21B27,2013-10-17 03:24:00,
2013-10-16 23:29:00,58.7,48.5,29.87,SSW,213,6.0,6.0,69,0.00,,,0.69,WeatherCatV1.21B27,2013-10-17 03:29:00,
2013-10-16 23:34:00,58.7,48.2,29.87,SW,223,2.0,5.0,68,0.00,,,0.69,WeatherCatV1.21B27,2013-10-17 03:34:00,
2013-10-16 23:39:00,58.6,48.5,29.87,West,261,0.0,1.0,69,0.00,,,0.69,WeatherCatV1.21B27,2013-10-17 03:39:00,
2013-10-16 23:44:00,58.5,48.8,29.87,SW,234,5.0,9.0,70,0.00,,,0.69,WeatherCatV1.21B27,2013-10-17 03:44:00,
2013-10-16 23:49:00,58.4,48.7,29.87,West,261,2.0,7.0,70,0.00,,,0.69,WeatherCatV1.21B27,2013-10-17 03:49:00,
2013-10-16 23:54:00,58.4,48.3,29.87,WSW,244,2.0,4.0,69,0.00,,,0.69,WeatherCatV1.21B27,2013-10-17 03:54:00,
2013-10-16 23:59:00,58.5,48.4,29.87,WSW,254,3.0,7.0,69,0.00,,,0.69,WeatherCatV1.21B27,2013-10-17 03:59:00,